Wind_Speed
56 56 56 57 57 57 56 55 54 54 55 56 57 59 61 62 62 62 63 65 66 66 66 64 62 61 61 60 60 60 60 60 60 59 59 58 57 57 56 57 57 57 58 58 58 57 58 58 59 59 58 57 57 56 56 56 56 56 57 57 57 56 54 53 51 50 50 50 51 51 51 51 50 50 50 51 51 52 53 54 55 56 57 57 56
60 58 57 58 58 57 55 54 53 54 54 56 57 58 59 61 63 64 65 65 66 67 67 67 66 66 65 65 64 63 62 62 62 62 61 61 60 59 59 59 59 58 58 59 59 60 61 61 61 60 59 59 58 58 58 59 58 58 57 57 57 56 55 54 53 53 52 52 51 52 52 52 51 51 51 52 53 53 55 56 57 58 57 56 55
63 62 60 58 58 57 56 56 56 56 56 57 58 59 60 61 62 64 66 67 67 67 68 68 68 69 69 69 69 68 66 65 65 65 64 63 62 62 62 62 61 61 61 61 61 62 62 63 63 63 61 60 60 60 60 59 59 58 58 58 57 57 57 57 56 56 55 55 54 54 54 54 54 53 53 53 53 54 54 55 55 54 54 53 53
67 66 64 63 62 61 60 58 58 57 57 59 61 63 64 64 64 65 66 68 69 69 69 69 70 71 71 72 72 70 69 68 67 66 65 65 64 64 64 64 64 63 63 63 64 63 63 63 64 64 63 62 61 61 60 59 59 60 59 59 59 59 60 60 59 59 58 57 57 56 56 56 55 54 54 53 52 52 51 50 49 48 48 48 49
72 71 70 69 68 67 64 61 60 59 59 59 62 66 68 69 69 68 68 68 69 71 71 71 71 72 72 71 71 71 70 69 67 67 66 66 65 65 65 66 67 67 66 66 65 63 62 61 62 62 62 61 59 59 58 58 60 61 61 60 60 61 62 61 61 60 60 59 58 58 58 58 58 57 56 55 54 52 50 48 47 46 46 47 47
75 76 76 76 75 74 72 69 67 66 65 63 62 65 69 73 74 73 72 72 71 71 73 73 74 74 74 73 71 70 69 68 67 67 67 66 66 66 66 67 69 70 69 68 67 63 60 60 61 61 60 60 58 58 58 59 60 62 63 62 62 63 63 63 63 63 62 62 62 62 62 62 61 60 58 56 55 54 52 50 49 48 48 48 48
79 78 79 80 81 81 81 79 76 73 71 70 67 65 68 73 77 78 78 77 76 75 75 75 76 77 78 78 76 74 72 70 69 69 68 69 69 69 69 69 71 72 72 70 68 65 61 60 60 59 59 59 58 58 59 59 61 63 64 64 64 65 66 66 66 65 65 65 66 66 65 64 62 60 58 56 55 54 53 52 51 51 50 50 49
82 82 82 82 82 83 84 84 83 79 75 72 70 68 68 72 77 80 81 80 80 80 79 79 79 79 80 80 81 79 77 75 73 71 71 71 72 73 73 73 74 75 75 74 71 67 63 60 58 58 57 57 58 58 58 59 60 63 65 66 66 67 68 69 69 68 67 68 68 67 66 64 62 60 58 56 55 55 54 53 53 52 51 50 50
83 83 83 83 83 83 84 84 83 82 78 73 71 71 71 73 76 80 83 83 82 82 82 83 82 82 82 83 84 83 82 80 78 76 75 75 75 76 76 76 77 79 79 78 74 69 64 60 58 58 58 57 57 58 59 59 61 63 65 67 68 70 71 72 71 70 69 69 69 68 66 64 62 61 59 58 56 55 55 54 54 54 53 52 52
85 84 82 82 82 82 81 81 79 78 77 74 72 73 74 75 76 80 83 85 85 85 84 84 84 84 85 86 87 87 85 83 81 80 79 78 78 79 79 79 79 81 82 81 77 70 65 62 62 61 61 59 58 59 61 61 62 64 66 69 71 72 73 72 71 70 70 70 69 67 65 64 63 62 61 59 57 55 55 55 55 55 54 54 54
88 87 85 83 81 79 78 77 75 74 73 72 72 73 74 76 78 80 83 86 89 89 89 87 86 86 86 86 87 88 87 85 82 81 79 77 77 77 78 79 80 81 83 81 77 72 68 66 65 64 63 62 60 59 61 63 65 66 68 70 72 72 72 70 69 69 69 68 66 65 65 64 64 63 61 58 56 55 55 56 55 55 55 55 55
91 90 89 87 84 81 78 76 75 73 72 71 71 72 74 76 79 81 83 85 88 91 92 91 90 89 88 86 85 84 85 85 84 82 81 79 78 76 76 76 76 78 79 78 75 72 70 69 68 67 66 66 63 60 59 62 66 68 69 70 71 71 69 67 67 67 67 66 65 65 65 65 64 62 59 56 55 55 55 55 55 56 56 56 56
94 93 92 90 88 85 83 80 78 77 76 75 75 75 75 76 78 80 83 85 86 88 91 93 93 92 91 89 86 83 81 80 80 80 81 83 82 80 77 75 74 73 73 74 72 72 71 70 69 69 67 66 63 60 58 61 65 68 70 72 71 70 68 67 67 67 66 66 66 66 65 64 63 60 58 55 55 54 55 55 56 56 57 57 57
97 97 95 94 92 91 88 86 84 83 82 82 82 81 80 80 80 81 83 85 86 86 88 90 91 91 90 89 88 87 84 81 78 76 76 79 81 81 78 76 74 72 70 70 70 71 71 70 69 68 67 66 63 61 60 63 66 68 71 72 71 69 68 68 68 67 66 66 66 66 65 64 62 60 57 56 55 55 55 56 56 57 57 57 57
98 99 99 99 98 97 95 94 92 89 88 87 88 88 87 85 85 85 85 86 87 86 86 86 87 88 87 86 86 86 86 84 82 78 75 74 76 78 77 75 72 68 66 66 67 67 67 66 66 65 65 65 65 64 65 66 68 71 72 72 70 67 66 66 66 65 64 65 65 65 64 63 62 60 58 57 57 57 57 57 57 57 57 58 58
94 97 99 100 101 101 101 101 99 98 96 93 92 91 90 88 87 86 86 86 86 86 86 86 87 87 87 86 85 84 84 83 82 81 80 78 76 75 73 70 66 63 61 61 61 61 61 61 62 63 63 64 65 66 68 70 72 73 72 68 65 63 62 62 62 62 62 64 64 64 64 64 63 61 60 60 59 60 60 60 59 59 59 60 61
93 93 95 97 99 100 101 102 102 102 101 99 96 93 91 88 86 85 84 84 84 85 85 86 87 88 88 87 87 86 84 83 81 80 80 79 77 74 71 67 63 60 59 58 58 58 58 59 60 61 62 62 64 67 71 74 75 73 69 65 63 62 62 61 60 61 62 64 65 66 66 66 65 63 62 62 63 63 63 63 63 63 64 65 65
93 92 92 94 95 96 98 99 100 101 101 100 98 95 92 89 87 85 83 82 82 82 83 84 86 87 88 87 88 87 86 84 82 80 79 77 75 73 71 68 64 60 58 57 57 57 58 61 63 64 63 64 67 71 74 74 72 69 65 63 62 62 62 61 59 59 63 67 68 69 70 70 67 65 65 65 65 65 64 65 66 67 68 68 68
93 92 91 91 92 93 94 96 98 99 100 100 100 98 96 94 92 90 88 85 83 83 82 82 83 84 86 86 87 86 85 82 81 79 77 74 72 71 69 67 63 59 57 56 56 57 60 63 66 67 67 68 70 73 74 71 68 66 65 63 63 62 60 59 59 60 64 69 72 74 75 74 70 67 68 69 69 68 66 66 67 69 70 70 70
95 94 93 91 91 91 91 93 95 96 99 101 101 100 99 98 97 96 94 91 89 88 87 86 83 82 83 83 83 82 80 78 77 76 73 70 70 70 67 65 62 59 57 57 57 58 60 62 65 66 67 68 70 71 70 67 65 66 67 66 64 62 59 59 61 61 63 67 70 72 74 73 70 69 71 73 73 72 70 68 68 70 71 71 71
96 97 96 95 94 92 91 91 92 93 94 96 98 99 99 99 99 98 97 96 95 94 93 91 88 84 82 80 79 78 77 76 74 72 68 66 68 70 69 67 65 63 61 61 61 61 61 62 63 64 65 67 67 65 62 61 62 65 67 66 63 60 58 59 60 61 62 65 65 65 66 67 68 71 74 76 76 74 71 69 70 71 72 72 72
94 96 97 98 98 98 96 93 92 92 91 91 93 94 94 94 95 96 96 96 95 93 92 92 90 87 83 79 76 75 75 74 72 71 68 66 67 69 70 69 68 66 64 64 64 64 64 64 63 62 63 65 65 63 60 59 62 66 67 64 60 57 56 58 59 60 63 66 66 64 65 66 67 70 73 75 74 71 70 70 72 73 73 73 73
92 94 95 96 97 99 100 99 96 95 93 92 91 90 88 87 86 88 89 91 89 86 84 85 87 87 82 78 75 73 73 73 72 70 68 67 67 68 68 68 68 66 65 65 66 67 67 67 65 63 61 64 67 67 63 61 63 67 66 61 58 56 57 58 58 57 60 65 66 66 66 67 67 69 71 71 70 69 69 71 72 73 73 74 75
93 93 94 95 95 97 98 100 100 99 98 96 93 90 88 85 83 82 82 83 84 81 78 78 80 82 81 77 73 72 72 73 72 70 68 67 67 68 67 67 65 64 63 63 65 66 66 66 65 62 61 65 69 69 63 61 65 69 67 62 60 58 57 57 57 56 58 62 64 65 67 68 69 69 69 69 69 70 71 72 73 73 74 74 77
94 94 94 95 96 96 96 97 99 100 101 101 98 94 91 88 86 83 81 80 80 79 78 76 76 77 78 76 73 72 71 72 72 71 69 68 68 69 68 66 63 62 62 61 62 63 64 64 64 63 63 67 71 69 64 64 67 68 68 65 62 59 56 55 56 57 59 61 63 66 68 69 69 69 68 68 69 69 70 72 72 73 74 76 78
94 94 94 95 96 97 97 96 97 99 102 104 103 100 96 93 90 87 84 82 81 79 78 77 76 75 75 74 74 73 72 71 71 70 68 67 68 69 68 65 62 61 61 61 61 62 63 63 63 64 65 68 70 68 65 65 68 69 69 67 62 57 54 54 54 56 60 63 65 67 68 68 68 68 67 67 67 68 70 72 74 75 77 78 80
92 92 92 93 94 96 97 97 97 97 100 103 105 104 102 99 97 93 89 86 84 82 80 78 77 76 74 73 73 74 72 71 70 69 67 66 66 68 68 65 61 59 59 61 62 62 64 65 65 66 67 67 68 67 65 67 70 71 69 65 58 54 54 56 57 60 63 66 67 68 68 69 69 68 68 68 69 71 73 75 76 78 80 80 80
87 88 89 90 91 92 94 96 97 97 98 100 104 106 106 104 103 99 95 92 90 88 86 82 78 76 74 73 72 72 71 70 70 69 70 69 67 66 65 63 60 57 57 59 60 61 63 64 65 67 68 68 67 66 67 69 71 70 66 61 56 55 59 61 63 65 66 67 67 66 67 68 69 70 70 71 73 75 76 77 79 80 81 80 81
80 82 83 84 86 87 89 91 93 95 97 98 101 104 106 108 107 105 101 98 97 95 93 90 85 81 79 77 75 73 71 69 70 70 70 70 68 66 63 61 58 56 58 61 62 61 60 62 64 66 67 67 66 67 69 70 70 68 64 60 58 60 63 64 64 64 64 63 64 65 66 68 70 72 73 75 77 78 78 79 80 80 80 81 82
74 74 75 77 79 81 83 85 87 89 92 95 97 100 102 105 108 108 107 105 104 103 101 97 94 91 90 88 86 83 77 72 71 71 70 69 68 67 65 63 60 59 60 63 64 63 62 62 63 64 65 64 64 66 69 70 68 66 63 62 62 63 64 63 62 62 62 62 63 65 67 70 72 75 77 78 79 80 81 80 80 81 82 82 83
67 67 68 70 71 73 76 78 80 82 85 88 92 95 97 99 101 103 103 103 103 104 105 104 102 101 99 97 95 94 89 81 75 72 71 69 68 67 67 66 64 64 64 65 67 68 68 67 67 68 68 68 67 67 68 69 68 66 65 65 66 65 65 64 63 63 64 65 67 68 70 73 75 78 80 81 82 82 82 82 82 82 82 82 82
64 63 63 64 65 66 67 69 71 74 76 79 83 87 91 94 95 95 96 95 94 95 98 101 105 106 106 103 99 97 95 88 80 75 72 70 68 67 68 68 67 66 67 68 70 72 73 73 73 74 74 74 74 72 70 70 70 70 69 69 68 67 66 66 65 66 68 70 71 73 74 76 78 80 82 82 82 82 81 81 81 81 81 81 81
62 61 60 60 60 61 61 62 63 65 67 70 74 77 81 85 88 89 90 90 90 89 89 91 96 100 101 99 95 92 92 90 84 78 74 72 71 70 70 70 69 68 68 69 69 71 73 74 74 75 75 75 75 75 74 73 73 73 72 71 69 67 67 67 68 69 72 74 74 75 76 77 78 79 79 78 78 78 79 79 80 80 81 80 80
59 58 57 57 57 57 57 57 57 58 60 62 65 68 71 75 79 82 83 84 85 86 85 85 88 91 91 89 87 87 89 89 87 82 77 74 73 73 72 72 71 69 67 66 67 69 71 73 73 73 73 74 77 79 78 77 75 74 73 71 70 69 69 69 70 72 74 75 75 75 75 75 75 75 75 76 77 78 79 80 80 80 80 79 78
55 54 54 54 54 54 54 54 53 53 54 55 57 59 61 65 69 73 76 79 80 81 81 81 83 85 86 84 84 86 89 90 88 86 81 77 75 76 76 75 73 69 65 65 67 69 71 72 72 72 73 75 77 78 77 76 74 73 73 72 72 71 69 70 72 73 74 75 76 76 75 74 74 75 76 77 78 79 80 80 80 79 78 77 76
51 51 50 50 51 51 51 51 50 50 50 50 50 51 53 56 59 63 67 71 73 75 76 76 77 79 81 81 81 84 89 91 89 87 85 80 78 79 80 77 73 70 66 65 68 71 73 73 73 73 75 77 76 75 73 72 71 71 71 71 72 71 69 70 72 73 74 74 74 74 74 75 76 78 79 79 80 80 80 80 79 77 76 75 75
48 47 46 46 46 47 47 47 47 47 46 45 45 45 46 48 51 55 59 62 65 67 68 69 71 73 75 77 78 81 85 89 90 89 87 83 81 80 80 77 74 73 71 70 71 74 75 75 73 73 72 72 70 68 67 66 65 65 65 66 66 66 66 67 69 70 71 72 73 74 76 77 78 79 79 79 79 79 78 77 76 75 74 74 73
43 42 41 41 42 43 43 43 44 43 43 41 40 40 41 42 44 47 50 53 56 59 61 62 64 66 67 70 74 77 81 85 88 89 88 86 83 81 80 79 77 75 75 73 73 75 75 74 71 69 67 66 64 63 62 62 62 62 63 63 64 64 65 66 68 70 72 73 75 76 76 77 77 77 77 77 77 76 75 75 74 73 72 71 70
36 36 37 39 40 40 39 38 38 38 38 37 36 36 36 37 39 41 43 45 47 50 53 55 58 59 61 63 68 72 76 80 83 85 86 86 85 83 82 81 80 77 75 73 72 73 73 72 70 69 68 68 67 66 64 63 63 64 64 65 65 66 67 69 70 72 73 74 74 75 75 75 75 75 75 75 74 73 72 72 71 70 69 69 68
30 33 36 38 38 36 33 31 31 32 33 33 33 33 34 34 35 36 37 39 40 43 46 48 51 53 55 58 62 66 71 74 77 79 81 83 85 86 84 83 82 80 77 74 72 71 70 71 72 73 74 74 73 71 70 69 68 67 67 68 68 69 69 70 71 73 73 74 75 75 75 75 74 74 73 72 71 70 70 69 68 68 67 67 67
29 32 34 35 33 30 28 27 27 28 29 30 30 30 31 32 33 34 34 35 36 37 40 42 44 47 50 53 56 60 64 68 71 74 76 78 82 85 87 86 84 82 79 78 77 74 71 72 73 75 75 75 74 73 73 72 72 71 70 70 70 70 71 72 73 73 74 74 74 74 74 73 72 71 70 69 68 68 67 66 65 65 65 65 65
28 30 30 29 27 26 25 25 26 26 26 27 27 28 28 29 29 30 31 32 33 34 34 36 38 41 44 48 51 55 58 61 65 68 71 73 77 81 84 85 84 81 80 79 78 76 75 75 76 76 75 74 73 73 72 72 72 71 71 71 70 71 71 72 72 72 72 72 72 71 70 69 68 67 67 67 66 65 64 63 63 63 63 63 63
27 27 26 25 23 21 20 21 21 21 21 21 21 22 23 23 23 24 25 26 27 28 29 31 33 36 39 43 47 50 53 55 58 62 64 67 70 73 76 78 77 76 75 75 74 74 75 76 76 75 74 73 73 73 73 72 72 72 71 71 71 70 70 69 69 69 69 69 68 67 66 65 64 64 64 64 62 61 61 61 61 61 61 61 61
25 25 23 22 20 17 16 16 16 15 14 13 14 14 14 15 15 16 17 19 21 23 25 27 29 32 35 38 42 45 47 50 53 55 58 60 62 65 67 68 68 68 68 69 70 71 73 73 73 73 73 72 72 72 72 72 72 71 70 69 67 66 66 65 65 64 64 63 63 62 62 61 61 61 60 59 59 58 58 58 59 59 59 59 60
23 24 23 23 21 19 17 17 17 16 14 11 9 7 6 7 7 8 10 12 14 16 19 21 23 26 29 32 35 38 40 42 45 48 51 53 55 56 58 59 60 61 63 64 66 68 69 70 71 71 70 70 69 69 68 68 66 65 64 63 62 62 62 61 61 61 60 59 59 58 58 58 57 57 56 56 56 56 56 57 57 57 58 59 59
22 22 23 23 23 22 20 19 18 16 15 13 11 9 8 6 5 3 2 4 6 8 10 12 14 17 20 23 26 29 31 34 37 40 43 45 47 48 49 50 52 55 57 59 61 63 65 66 67 67 66 65 64 63 62 60 59 59 59 59 59 59 59 58 58 58 57 56 55 54 54 53 53 53 54 54 55 55 55 55 56 57 57 58 58
21 21 21 21 22 21 20 18 17 16 15 14 12 11 9 8 8 7 5 3 2 4 6 8 10 11 13 15 17 19 22 25 28 30 33 36 38 41 42 43 45 47 49 51 53 55 58 60 61 61 61 60 58 57 57 56 56 57 57 56 56 55 55 55 55 54 53 52 51 51 51 51 51 52 53 54 54 53 54 54 55 55 56 57 58
19 20 20 20 19 19 18 18 17 16 15 14 13 12 10 9 8 7 7 6 5 7 9 11 12 13 14 15 15 16 17 19 20 22 24 27 29 31 32 34 36 38 40 42 44 46 48 50 51 52 52 52 51 51 52 52 53 53 53 53 52 52 52 52 52 51 50 50 49 50 50 50 51 52 52 52 52 52 52 53 54 54 55 56 58
19 18 18 18 18 17 17 16 16 16 16 15 14 13 12 10 9 8 7 7 7 8 9 10 11 12 12 13 15 16 17 18 18 20 21 23 25 26 26 27 28 29 30 32 34 36 38 40 41 42 43 43 44 45 46 47 48 49 49 49 50 50 50 50 50 50 50 50 50 50 50 50 49 49 49 49 50 51 52 53 53 54 55 57 58
29 23 19 17 16 15 14 14 14 14 14 15 14 14 13 11 10 9 8 8 8 8 9 10 10 11 11 11 12 14 15 16 18 19 20 22 25 27 27 27 28 28 29 30 31 32 34 35 36 37 37 38 39 41 42 44 45 46 46 47 47 48 48 49 49 50 51 51 50 49 47 46 46 46 47 48 49 51 51 52 53 54 56 58 60
42 38 32 26 20 16 13 11 11 11 12 12 13 13 13 12 10 10 9 9 9 10 10 10 11 12 13 14 14 13 14 15 17 19 20 20 22 23 24 24 25 26 27 29 30 30 31 32 34 35 36 37 37 39 40 42 43 44 45 45 46 46 47 48 49 50 50 48 46 45 43 43 44 45 47 48 49 50 51 52 54 55 57 60 62
Wind_Direction
252 250 249 249 249 248 250 253 255 257 257 257 258 259 258 255 252 251 250 250 250 249 249 249 249 249 249 251 253 255 256 258 260 261 262 264 265 265 266 266 267 267 267 267 267 267 267 267 268 268 269 271 272 274 275 276 276 277 277 278 278 278 277 274 272 270 268 267 267 268 270 271 272 274 275 277 278 280 281 283 284 285 286 286 287
252 249 246 245 246 247 250 254 257 258 258 257 257 259 261 261 258 255 252 251 251 252 252 252 251 250 250 250 251 252 254 256 258 260 262 264 265 266 267 267 268 268 269 269 268 268 267 268 269 270 271 272 273 274 275 275 275 275 276 277 277 277 275 273 272 271 271 270 271 272 274 275 277 278 280 282 283 284 285 286 286 287 288 288 289
252 249 246 244 245 248 253 257 260 260 259 258 257 258 260 262 262 260 258 256 255 254 254 253 253 253 252 251 251 251 252 254 257 260 262 264 265 266 267 267 268 269 270 271 270 269 268 268 268 269 270 271 272 273 274 274 275 275 276 277 277 276 275 273 272 272 273 274 275 277 278 279 280 281 283 284 285 286 287 287 287 287 287 287 287
252 249 247 246 248 251 254 257 258 259 260 260 260 260 260 260 260 260 260 260 259 258 257 256 256 255 254 254 254 254 254 256 258 261 262 263 264 265 266 268 269 270 271 271 270 269 268 268 268 269 269 270 271 272 273 274 276 277 277 277 277 276 274 273 272 273 274 275 276 277 279 280 281 283 283 284 286 287 287 286 285 284 285 285 285
255 251 250 251 253 255 256 257 257 258 259 260 260 260 261 261 260 259 258 258 258 258 258 257 257 257 256 256 255 256 256 257 259 260 261 262 264 265 267 268 270 271 272 273 272 271 269 267 267 267 268 269 270 271 273 275 277 278 277 276 276 275 274 273 272 273 274 275 276 277 279 280 281 282 283 284 286 286 285 283 282 283 284 285 285
259 256 254 254 256 258 260 261 262 262 262 263 263 261 259 258 259 260 259 257 256 256 256 256 256 256 256 256 256 256 256 257 258 259 260 262 264 266 268 270 271 271 273 274 274 272 270 267 266 266 267 269 270 272 273 275 277 277 277 276 275 274 274 273 273 273 274 275 276 277 278 279 280 281 282 284 284 285 283 281 281 282 283 284 284
263 261 258 257 256 258 260 263 265 266 266 266 266 264 260 256 255 256 258 258 258 256 255 255 255 256 256 257 257 257 257 258 258 260 262 264 265 267 269 271 272 273 273 274 273 271 269 267 266 267 268 269 270 271 272 273 274 275 276 276 275 274 274 273 272 273 274 275 276 276 277 278 279 280 281 282 282 282 280 279 280 281 282 283 282
264 263 262 260 259 258 259 261 264 266 267 266 265 264 261 258 255 253 253 255 257 258 257 256 256 256 256 257 258 258 259 260 261 263 264 266 268 269 270 271 273 274 274 274 272 270 269 268 267 267 268 269 270 270 270 271 271 273 274 275 274 274 273 272 272 272 273 274 275 275 276 276 277 278 279 279 279 279 278 278 278 280 281 281 280
264 263 263 263 263 262 261 261 263 265 266 265 263 261 259 258 257 255 253 253 254 256 257 257 257 256 257 257 257 258 258 260 262 264 266 267 269 270 271 271 272 273 274 274 271 269 268 268 267 268 269 269 270 271 272 272 272 272 273 274 274 273 272 271 271 271 272 273 273 274 275 276 277 277 278 278 277 276 276 277 278 279 279 279 279
265 264 264 265 265 266 265 265 264 264 264 263 261 259 257 256 256 256 255 254 253 254 255 257 258 258 257 257 257 258 258 259 261 263 264 266 267 269 270 270 271 272 273 273 270 267 268 268 268 269 270 271 272 273 274 273 273 272 272 273 272 271 270 270 270 270 270 271 272 273 274 275 276 277 277 277 276 275 276 277 278 279 279 278 278
267 266 265 265 264 264 264 264 264 263 262 261 259 257 257 257 256 255 255 255 254 254 254 255 257 258 258 258 258 258 259 260 261 263 264 265 266 267 269 270 270 271 272 272 268 264 266 268 269 269 270 271 272 272 272 272 271 271 271 270 270 269 268 268 268 268 269 270 271 272 273 275 276 277 276 276 275 275 276 278 278 279 278 278 278
267 266 266 265 264 262 261 261 261 261 260 259 258 258 258 258 258 257 256 255 255 255 255 255 255 257 258 258 258 258 259 260 262 263 265 266 266 267 267 267 268 267 268 267 264 262 265 267 267 268 268 269 271 271 270 269 270 270 270 270 269 267 265 266 267 267 268 269 270 272 273 274 275 275 275 274 274 275 277 277 278 278 278 278 278
265 265 264 264 264 263 262 261 261 260 260 259 258 258 258 258 258 258 258 257 257 257 256 256 256 257 257 258 258 258 258 260 261 263 263 264 265 266 265 264 264 263 263 262 261 261 264 265 266 267 267 268 270 271 270 269 268 269 269 269 268 265 263 265 267 267 268 269 270 271 272 273 274 273 272 272 273 275 276 276 277 278 278 278 278
263 263 264 264 264 264 264 264 263 262 261 260 260 259 258 258 257 257 258 258 259 259 258 258 258 258 258 258 257 257 258 258 260 261 262 263 263 263 262 261 261 261 261 261 261 262 263 265 267 268 268 269 270 271 271 270 269 268 268 267 266 263 261 263 265 266 267 267 268 269 270 271 271 270 269 270 272 274 275 275 276 277 277 278 278
262 263 263 264 265 265 265 265 264 264 263 262 261 261 260 259 257 257 257 257 258 259 260 260 260 260 261 261 260 259 259 259 259 259 260 261 261 261 260 260 260 260 260 260 260 261 262 265 267 268 269 271 271 271 271 271 270 268 266 265 264 262 261 261 263 264 264 265 267 268 269 269 268 267 267 269 272 273 273 273 274 275 276 277 278
263 263 263 263 264 265 265 264 264 263 263 262 262 260 259 258 257 257 256 256 257 258 259 260 261 261 262 263 263 262 261 261 261 261 261 261 261 261 259 259 258 258 258 258 259 261 263 264 266 267 268 269 270 270 271 271 270 267 264 264 263 261 259 260 261 263 264 265 266 266 267 267 266 266 267 269 271 273 272 271 272 273 275 277 278
265 263 263 263 263 263 264 264 263 263 262 261 260 258 257 256 255 255 256 255 255 256 257 259 260 260 261 262 263 263 263 262 262 263 263 263 263 263 261 259 259 258 258 259 261 263 263 263 263 263 264 267 268 269 270 271 269 265 262 262 260 258 257 259 260 263 265 266 266 266 266 266 265 264 266 268 271 273 272 270 271 273 276 277 278
266 265 264 263 263 262 262 262 262 262 262 260 259 257 255 254 253 253 254 255 255 255 256 257 258 259 260 260 261 262 263 263 263 263 264 264 264 264 262 260 260 259 259 260 262 262 261 261 261 261 262 264 266 266 268 267 264 262 261 259 256 256 258 259 260 262 264 265 267 267 265 264 263 263 264 266 269 270 270 270 271 274 277 278 278
267 265 264 263 263 263 262 262 261 261 261 261 259 257 255 255 254 253 253 254 255 256 256 256 256 257 258 259 260 261 262 263 262 262 263 264 264 263 261 260 260 261 261 261 260 260 261 262 263 262 263 265 265 265 265 264 261 261 261 257 255 257 260 260 260 262 263 263 265 267 266 263 261 262 264 266 267 268 268 269 272 275 278 278 278
270 268 265 264 263 262 262 262 262 261 261 261 260 259 258 257 256 255 255 255 255 258 259 258 256 256 257 257 258 259 260 260 260 260 260 261 262 262 261 260 260 260 260 261 260 260 261 262 263 264 264 264 264 263 263 263 262 259 257 255 255 257 259 260 261 263 263 263 265 268 268 265 264 266 268 269 269 268 268 270 272 275 277 278 279
270 269 268 266 264 263 262 262 261 261 260 260 260 260 259 259 258 257 258 258 259 260 261 260 258 257 258 258 258 258 259 259 258 258 258 257 257 259 260 260 260 259 259 260 261 260 261 262 263 264 263 262 261 260 262 266 263 258 254 253 254 256 261 264 266 268 268 267 266 268 269 269 270 271 272 273 273 271 271 273 275 276 277 278 280
268 268 267 267 266 264 263 262 262 261 260 259 258 258 258 258 258 258 259 260 261 262 261 259 258 258 258 258 258 257 257 257 256 256 256 255 254 255 257 258 260 260 260 261 262 262 261 261 263 264 263 261 258 259 263 266 263 256 253 253 255 260 266 269 270 271 268 264 264 268 271 272 273 274 274 274 274 273 275 277 278 278 278 279 281
269 267 266 266 265 265 263 262 262 262 260 259 257 256 255 254 255 257 258 259 259 259 259 257 257 256 257 257 256 256 256 255 254 253 254 254 253 253 254 256 258 260 261 262 263 263 262 260 260 261 260 259 259 261 264 264 260 256 254 256 260 265 268 270 270 269 265 262 265 270 272 271 271 272 272 273 274 275 277 278 279 280 280 282 284
269 268 267 266 265 264 263 262 261 261 260 259 257 255 254 254 253 254 256 257 258 258 258 256 255 254 254 254 254 254 253 252 251 250 251 252 252 252 253 254 256 258 260 261 262 262 260 259 258 257 256 257 259 262 262 261 260 257 256 258 263 267 269 270 269 266 265 264 266 268 269 269 269 269 271 272 274 276 277 279 280 282 283 285 287
270 269 268 267 266 265 264 262 260 259 259 259 258 255 254 254 254 254 254 255 257 258 259 257 255 254 252 251 251 251 250 249 249 248 247 248 250 251 251 253 255 257 259 261 262 261 259 258 257 257 256 256 258 259 259 260 260 259 258 260 264 266 268 269 267 265 265 265 267 268 269 270 269 270 272 274 275 277 279 281 283 284 285 286 286
273 271 269 267 266 265 264 263 261 259 258 258 258 256 254 253 253 253 254 254 255 256 257 257 256 254 252 250 249 249 249 248 248 247 246 247 248 250 251 252 255 257 259 261 262 261 259 258 257 258 259 258 256 256 257 258 259 259 259 260 263 265 266 265 264 264 265 267 268 269 270 270 271 273 274 275 277 280 282 282 283 283 284 284 284
275 273 271 269 267 265 264 263 261 260 258 257 257 256 256 254 253 253 252 253 253 253 254 254 255 255 254 252 250 249 250 250 249 248 248 247 248 250 251 252 255 258 259 260 261 260 258 256 256 257 259 258 255 255 257 259 259 258 258 259 262 265 264 263 263 264 267 269 269 269 269 271 274 275 275 276 278 280 281 281 280 281 282 282 283
277 275 273 271 269 267 265 263 262 260 259 257 256 256 255 256 255 254 252 252 253 254 253 253 253 254 254 255 254 253 252 252 252 252 251 250 249 250 250 251 253 256 258 258 257 256 253 252 253 256 257 257 256 256 258 260 258 256 255 258 263 265 264 263 265 266 268 269 269 269 270 272 273 273 273 274 277 278 279 278 278 279 281 282 284
278 276 275 273 271 269 267 265 263 261 259 258 257 255 255 255 255 255 254 253 253 254 254 253 251 251 253 255 256 256 255 253 252 253 253 252 252 251 251 251 251 253 256 256 255 253 252 251 252 255 257 258 257 258 260 259 255 253 254 259 264 266 265 265 266 267 268 269 271 272 273 273 272 272 272 273 274 275 276 276 278 279 281 284 286
280 278 277 275 274 271 269 267 265 262 260 258 256 255 255 255 255 255 255 255 255 254 254 253 251 251 252 254 256 257 256 252 249 250 251 252 251 251 252 251 248 248 252 256 255 254 252 252 253 254 256 258 258 260 262 260 253 252 256 261 265 267 267 267 268 269 269 271 273 274 274 273 272 272 271 271 272 273 275 276 278 280 282 284 286
282 281 280 278 277 275 273 270 268 265 262 260 257 255 254 254 254 254 254 254 254 254 253 252 252 252 253 254 256 257 257 253 248 247 249 251 251 251 252 252 249 247 249 254 256 255 255 255 257 258 259 261 262 263 264 260 254 253 259 264 266 267 267 268 269 269 270 271 272 272 272 271 271 270 270 270 271 273 275 277 279 281 283 285 286
284 283 283 282 280 279 277 274 272 269 265 263 260 257 255 253 252 253 253 253 252 252 251 250 250 251 253 255 255 256 256 253 248 245 246 248 250 251 252 253 251 248 249 252 255 258 260 261 262 262 263 263 263 263 262 260 256 257 262 266 267 266 265 267 269 270 270 270 269 268 267 266 266 267 268 269 271 274 276 278 280 282 284 286 287
287 287 286 285 284 282 280 278 275 272 269 266 263 260 257 254 252 251 251 252 251 250 250 249 249 250 251 252 252 251 250 249 246 243 243 245 248 249 251 252 252 251 250 251 254 258 261 263 265 266 265 264 263 261 260 258 257 259 262 265 264 263 264 266 267 267 266 265 263 262 261 262 264 266 268 271 273 276 278 280 282 284 285 286 287
290 291 290 289 286 284 282 280 277 275 272 269 266 263 260 257 254 251 250 249 249 249 248 247 247 248 249 248 247 245 244 244 244 243 241 243 246 247 249 250 251 251 253 255 257 259 262 264 266 267 266 264 262 259 256 255 255 257 260 262 261 261 262 262 261 260 259 258 258 258 260 262 265 268 271 273 276 278 280 281 283 284 285 285 286
293 293 292 290 287 284 282 281 279 277 275 272 269 266 263 260 257 254 251 249 248 247 246 246 245 246 246 245 243 241 240 241 242 242 241 241 243 245 247 248 249 251 255 259 262 263 263 264 264 264 263 261 257 254 253 252 253 255 257 258 258 258 257 256 255 254 254 255 256 258 261 264 268 271 273 275 277 279 281 282 283 284 284 285 285
295 294 292 289 287 285 283 281 279 278 276 274 272 269 266 262 259 257 254 250 248 246 245 244 244 244 244 242 241 239 239 239 239 240 241 240 241 243 245 246 248 251 254 259 262 262 261 260 260 259 258 255 253 251 251 252 252 253 254 254 254 254 253 252 251 251 252 254 257 261 264 267 270 273 275 277 278 280 281 282 283 283 283 283 283
295 294 293 291 288 286 284 282 280 278 276 275 273 271 268 264 261 258 255 253 250 247 244 243 243 242 242 241 240 238 238 238 238 238 239 239 239 241 243 245 247 250 253 257 258 257 255 255 254 253 252 252 252 252 253 253 253 253 253 253 253 252 252 251 251 253 255 258 261 264 267 269 272 274 276 277 278 279 280 281 281 282 282 282 282
297 297 296 294 292 290 286 283 280 278 275 274 273 272 269 265 262 259 256 254 251 248 245 243 242 241 241 240 240 238 237 237 237 237 238 238 238 239 241 244 246 248 251 253 253 252 250 249 249 248 248 250 252 252 253 254 254 254 254 254 254 254 254 254 256 258 261 263 266 268 270 272 274 275 276 277 278 279 279 279 280 280 280 280 280
302 302 301 299 297 294 289 284 280 277 275 274 273 272 270 267 263 260 257 254 251 248 245 243 242 241 240 239 238 238 237 236 236 236 236 237 238 238 240 241 243 245 247 248 247 247 247 247 246 245 247 249 251 252 253 253 254 254 255 256 256 257 258 260 261 263 265 268 270 272 273 274 275 275 276 276 277 277 278 278 278 279 279 279 279
308 306 304 303 300 295 290 285 280 277 276 275 274 273 271 268 265 261 257 253 250 248 245 243 242 241 239 238 238 238 237 236 236 236 235 235 236 237 238 240 241 242 244 244 244 243 244 245 245 246 248 250 251 253 254 256 257 258 259 260 261 262 264 265 266 268 270 272 273 274 274 274 274 274 274 275 275 276 276 277 277 277 278 278 279
314 311 308 305 301 296 291 287 283 280 278 277 276 274 271 268 265 262 257 253 249 246 244 242 241 240 239 238 237 237 237 236 235 235 235 235 235 235 237 238 240 241 242 243 242 242 243 245 246 247 248 250 252 254 256 258 259 260 262 263 264 265 266 268 269 270 271 272 272 273 273 273 273 273 273 273 274 274 275 275 276 276 278 279 279
322 317 313 309 305 302 298 294 290 287 283 280 277 275 272 269 266 262 257 253 248 244 242 241 240 239 238 237 237 237 237 236 235 235 234 234 234 235 236 237 239 240 241 241 241 243 245 246 246 247 249 252 254 256 257 259 260 261 262 264 265 266 267 269 270 270 271 271 271 271 272 271 271 271 272 272 273 273 274 275 275 277 278 279 280
331 327 323 320 318 315 312 310 305 299 293 288 284 280 276 272 267 262 256 251 246 243 241 239 239 238 237 236 236 236 236 236 236 235 234 234 234 235 235 236 237 238 239 240 241 243 245 246 247 248 250 252 254 256 258 259 261 262 263 264 266 266 267 268 268 269 269 269 269 269 269 269 269 270 270 271 272 273 274 275 277 278 279 280 280
342 342 341 341 340 337 338 341 339 332 322 310 298 290 285 278 269 260 252 246 242 239 238 237 237 237 237 236 236 235 235 236 236 236 235 235 234 234 235 236 237 238 239 240 241 243 245 247 248 250 251 253 254 256 257 259 260 262 263 264 265 265 266 266 266 265 265 265 266 266 266 266 267 268 270 271 272 274 275 277 278 279 279 280 282
351 354 356 359 1 3 4 2 358 356 356 352 341 325 308 290 274 258 247 241 238 237 236 236 237 237 238 238 238 237 236 236 236 235 235 235 235 234 235 235 236 237 239 240 241 243 245 247 249 250 251 252 253 254 256 257 259 260 261 262 262 263 263 263 263 262 262 262 263 263 264 265 267 269 270 272 274 275 276 277 278 279 280 281 283
355 357 359 0 3 4 5 3 359 358 1 4 7 13 18 17 13 352 277 244 238 239 240 240 239 239 240 240 240 240 238 237 236 236 235 235 235 235 235 235 236 237 238 240 242 243 245 247 248 249 250 251 252 253 254 255 255 256 257 258 260 260 260 260 260 260 260 260 261 262 264 266 268 270 272 273 274 275 276 277 278 279 281 283 285
357 358 358 358 357 356 355 353 351 350 352 355 358 2 5 8 9 5 357 343 303 275 269 263 256 250 246 242 239 237 236 235 233 233 234 235 236 236 236 236 237 237 238 239 240 242 243 245 246 247 248 249 250 251 251 252 252 253 254 256 256 256 256 257 257 257 258 259 262 264 266 268 269 271 272 273 274 275 276 277 278 280 282 285 287
358 360 1 360 358 356 355 352 348 345 344 345 346 347 345 341 336 327 317 306 288 272 265 261 257 253 249 245 239 234 232 230 229 229 231 232 233 234 235 235 235 236 236 237 238 239 241 242 244 245 246 246 247 247 247 248 249 250 250 252 252 253 254 255 254 255 258 261 264 266 267 268 270 271 272 273 274 275 277 278 280 282 285 287 290
1 360 0 0 0 0 359 357 355 352 348 345 342 339 336 332 326 315 301 286 271 258 251 250 250 247 244 241 236 231 230 230 230 232 233 229 224 223 225 228 230 231 233 234 235 236 238 240 242 243 244 244 244 244 245 246 247 248 249 251 252 253 254 254 254 256 259 262 264 265 267 268 270 271 272 273 275 276 278 280 283 285 288 290 291
20 14 7 0 357 356 355 353 351 350 348 346 344 340 336 330 322 313 302 289 275 262 251 248 249 249 248 245 239 234 232 232 231 233 234 230 225 223 223 224 225 227 229 231 234 236 237 238 239 241 242 243 244 245 246 248 249 250 251 253 254 255 255 255 256 258 260 262 264 265 267 268 269 270 272 274 276 278 280 283 285 288 290 291 292
29 27 24 19 12 3 354 348 344 342 341 338 334 331 330 326 320 311 302 292 283 275 265 257 253 252 253 254 252 247 242 238 236 236 236 234 230 228 226 227 230 232 233 234 236 238 239 240 240 240 241 244 247 248 250 251 252 252 253 254 255 255 256 256 257 258 260 262 263 265 266 267 269 271 273 276 278 281 283 286 288 290 291 292 293
Height
5638 5638 5638 5638 5639 5639 5640 5640 5641 5640 5641 5641 5642 5643 5642 5641 5640 5640 5640 5640 5640 5641 5641 5641 5642 5643 5644 5645 5647 5647 5648 5648 5648 5649 5650 5651 5652 5653 5653 5653 5654 5654 5654 5654 5655 5654 5654 5654 5653 5653 5653 5653 5653 5652 5652 5652 5653 5653 5653 5653 5653 5653 5653 5652 5652 5653 5654 5654 5653 5652 5652 5652 5653 5653 5652 5652 5653 5653 5653 5653 5652 5652 5650 5649 5647
5628 5628 5628 5629 5629 5630 5630 5631 5631 5631 5631 5632 5633 5633 5634 5634 5633 5633 5633 5633 5633 5634 5634 5634 5634 5634 5635 5635 5636 5637 5638 5639 5639 5640 5641 5643 5644 5644 5645 5645 5645 5646 5646 5646 5646 5646 5646 5646 5645 5645 5645 5645 5645 5645 5645 5645 5645 5646 5646 5645 5645 5645 5645 5645 5644 5644 5645 5645 5645 5644 5644 5644 5645 5646 5645 5644 5645 5645 5645 5644 5644 5643 5641 5639 5638
5618 5618 5618 5618 5619 5619 5620 5621 5621 5622 5622 5622 5623 5624 5625 5626 5626 5627 5627 5627 5626 5626 5626 5627 5627 5627 5627 5627 5627 5627 5628 5629 5630 5631 5633 5634 5635 5635 5636 5636 5636 5637 5638 5638 5638 5637 5637 5638 5637 5637 5637 5637 5637 5637 5638 5638 5638 5638 5638 5638 5638 5638 5638 5638 5637 5637 5637 5637 5637 5635 5635 5636 5636 5637 5637 5636 5636 5636 5635 5634 5634 5634 5633 5632 5631
5608 5608 5608 5608 5608 5609 5610 5611 5611 5612 5613 5613 5614 5614 5615 5616 5617 5618 5619 5619 5620 5620 5619 5619 5619 5619 5619 5619 5619 5620 5620 5621 5621 5622 5624 5624 5625 5626 5627 5627 5628 5629 5629 5629 5629 5629 5630 5630 5629 5629 5629 5629 5630 5630 5630 5630 5629 5630 5630 5630 5631 5631 5631 5631 5631 5630 5629 5630 5629 5628 5627 5628 5628 5629 5630 5629 5628 5627 5626 5625 5625 5625 5625 5624 5623
5598 5597 5598 5598 5598 5598 5599 5600 5601 5602 5603 5604 5604 5604 5605 5605 5606 5607 5608 5609 5610 5610 5610 5611 5611 5611 5612 5612 5612 5612 5612 5612 5612 5613 5614 5614 5615 5616 5618 5619 5619 5619 5619 5619 5620 5621 5621 5621 5621 5621 5621 5622 5622 5622 5621 5621 5621 5621 5622 5623 5623 5623 5624 5624 5624 5623 5622 5622 5622 5621 5620 5621 5621 5622 5623 5622 5621 5621 5620 5618 5617 5617 5617 5615 5615
5587 5586 5587 5587 5587 5587 5587 5588 5589 5590 5591 5592 5593 5594 5594 5595 5595 5595 5596 5597 5598 5599 5600 5600 5601 5602 5602 5602 5602 5602 5602 5601 5602 5603 5604 5604 5605 5607 5608 5610 5610 5610 5610 5610 5611 5612 5612 5612 5612 5612 5612 5613 5613 5613 5612 5612 5613 5613 5614 5615 5615 5615 5616 5616 5616 5616 5615 5614 5615 5614 5614 5614 5614 5615 5616 5616 5615 5614 5613 5612 5610 5610 5609 5607 5606
5575 5575 5575 5575 5576 5576 5575 5575 5576 5578 5579 5580 5581 5582 5583 5584 5584 5585 5584 5585 5586 5587 5588 5589 5589 5590 5591 5591 5591 5592 5591 5591 5592 5593 5594 5594 5595 5596 5598 5600 5600 5600 5600 5601 5601 5602 5603 5603 5603 5604 5604 5603 5603 5603 5603 5604 5604 5604 5605 5606 5607 5607 5608 5608 5608 5608 5608 5607 5606 5606 5606 5607 5606 5607 5609 5609 5608 5608 5607 5605 5604 5602 5602 5600 5598
5562 5562 5562 5562 5563 5564 5564 5563 5563 5564 5566 5567 5568 5569 5570 5571 5572 5573 5573 5574 5575 5575 5575 5576 5577 5578 5579 5580 5581 5581 5581 5582 5583 5584 5584 5585 5585 5586 5587 5589 5589 5589 5590 5591 5591 5592 5592 5593 5593 5595 5595 5594 5594 5594 5594 5595 5596 5596 5596 5597 5598 5599 5599 5599 5599 5600 5600 5599 5598 5598 5598 5599 5599 5599 5601 5602 5601 5601 5600 5598 5596 5595 5594 5591 5589
5549 5549 5549 5549 5549 5550 5551 5551 5551 5551 5552 5553 5554 5556 5557 5559 5560 5561 5562 5562 5563 5562 5562 5563 5564 5566 5568 5568 5569 5570 5571 5572 5574 5574 5575 5575 5575 5575 5576 5577 5578 5579 5580 5581 5582 5583 5583 5583 5584 5584 5585 5585 5585 5585 5585 5586 5587 5587 5588 5588 5589 5590 5590 5590 5591 5591 5591 5590 5589 5589 5590 5590 5591 5592 5593 5593 5593 5593 5592 5590 5588 5587 5586 5584 5580
5534 5535 5536 5536 5536 5536 5536 5537 5538 5538 5539 5540 5541 5542 5543 5545 5547 5548 5549 5550 5550 5550 5550 5550 5552 5554 5555 5556 5556 5557 5560 5563 5564 5564 5565 5565 5565 5565 5565 5566 5568 5568 5569 5571 5573 5575 5575 5575 5575 5575 5575 5575 5576 5576 5576 5577 5578 5579 5579 5580 5580 5580 5580 5581 5582 5582 5582 5581 5580 5581 5581 5581 5582 5583 5583 5584 5584 5584 5583 5581 5580 5579 5578 5576 5572
5519 5520 5521 5522 5523 5523 5523 5524 5524 5525 5525 5526 5527 5528 5529 5531 5533 5534 5536 5537 5538 5538 5538 5539 5540 5541 5542 5543 5544 5545 5548 5551 5552 5553 5553 5554 5554 5554 5554 5555 5557 5558 5559 5561 5564 5566 5566 5566 5566 5566 5566 5566 5567 5567 5567 5567 5568 5569 5570 5570 5570 5570 5571 5572 5572 5573 5572 5572 5572 5572 5572 5572 5572 5573 5574 5574 5575 5574 5574 5572 5571 5570 5569 5567 5564
5505 5505 5505 5506 5507 5509 5510 5511 5511 5511 5512 5513 5514 5515 5516 5517 5519 5520 5522 5524 5525 5526 5527 5527 5528 5528 5529 5530 5532 5534 5536 5538 5539 5540 5541 5542 5542 5542 5543 5544 5546 5548 5550 5552 5554 5556 5557 5557 5558 5557 5557 5557 5558 5558 5558 5558 5558 5559 5559 5560 5561 5561 5561 5562 5563 5563 5562 5562 5563 5563 5563 5563 5563 5564 5564 5565 5565 5565 5564 5563 5562 5561 5560 5558 5556
5490 5490 5490 5490 5491 5492 5494 5497 5498 5499 5499 5500 5501 5503 5504 5505 5506 5508 5509 5511 5512 5513 5515 5515 5516 5517 5517 5518 5520 5522 5524 5526 5527 5529 5530 5530 5530 5531 5531 5532 5534 5537 5539 5542 5543 5545 5547 5547 5547 5548 5547 5547 5548 5549 5549 5548 5548 5548 5548 5550 5551 5551 5551 5552 5552 5553 5553 5553 5553 5553 5554 5554 5554 5554 5555 5555 5556 5555 5555 5554 5553 5552 5551 5549 5548
5477 5476 5477 5476 5475 5476 5477 5480 5483 5485 5486 5487 5488 5490 5491 5492 5494 5494 5496 5498 5499 5500 5501 5502 5504 5505 5505 5506 5508 5509 5512 5514 5515 5517 5518 5519 5519 5519 5519 5520 5523 5526 5529 5531 5533 5534 5536 5536 5537 5537 5537 5537 5538 5538 5538 5538 5538 5538 5538 5539 5540 5540 5540 5541 5542 5543 5543 5543 5542 5542 5544 5545 5544 5544 5545 5546 5546 5546 5545 5544 5544 5543 5542 5540 5539
5462 5462 5463 5462 5461 5461 5462 5463 5465 5468 5470 5472 5474 5475 5476 5478 5480 5480 5483 5484 5485 5486 5488 5489 5490 5492 5493 5494 5496 5498 5501 5502 5503 5505 5506 5507 5508 5508 5508 5508 5511 5515 5518 5521 5523 5524 5525 5526 5526 5527 5527 5527 5528 5527 5527 5527 5528 5528 5528 5529 5529 5529 5530 5531 5532 5532 5533 5533 5532 5532 5534 5535 5535 5535 5535 5536 5537 5537 5536 5535 5535 5535 5533 5531 5531
5447 5448 5448 5448 5447 5446 5446 5447 5449 5451 5454 5457 5460 5461 5462 5463 5464 5465 5468 5470 5471 5473 5474 5475 5477 5478 5480 5482 5484 5487 5489 5490 5491 5493 5494 5495 5496 5496 5496 5497 5500 5504 5507 5510 5512 5514 5515 5515 5516 5516 5516 5517 5517 5517 5517 5517 5518 5518 5518 5519 5519 5519 5520 5521 5521 5521 5522 5522 5522 5522 5523 5524 5525 5525 5525 5526 5527 5527 5526 5526 5526 5525 5524 5522 5521
5431 5433 5434 5433 5432 5431 5430 5431 5433 5435 5437 5440 5443 5446 5447 5449 5450 5450 5453 5456 5458 5459 5461 5463 5464 5466 5468 5470 5472 5475 5477 5478 5479 5480 5481 5482 5483 5484 5485 5487 5489 5493 5496 5499 5502 5503 5504 5505 5505 5505 5506 5507 5507 5506 5506 5507 5508 5509 5509 5509 5509 5509 5510 5510 5510 5511 5512 5511 5511 5512 5513 5514 5515 5515 5515 5516 5517 5517 5516 5516 5516 5515 5514 5513 5512
5414 5417 5418 5418 5417 5417 5416 5415 5417 5418 5421 5423 5426 5429 5431 5433 5435 5435 5437 5441 5444 5446 5448 5450 5452 5453 5455 5457 5459 5461 5464 5466 5466 5468 5469 5470 5471 5472 5474 5476 5479 5483 5486 5488 5490 5492 5493 5494 5494 5494 5496 5497 5496 5496 5496 5497 5498 5499 5499 5499 5498 5499 5499 5499 5500 5501 5501 5500 5500 5501 5502 5503 5504 5504 5505 5505 5506 5506 5506 5505 5506 5504 5503 5503 5501
5396 5399 5402 5402 5402 5402 5401 5400 5401 5403 5405 5406 5408 5411 5414 5417 5418 5420 5422 5425 5428 5431 5434 5437 5439 5441 5442 5444 5446 5448 5451 5453 5454 5456 5457 5458 5458 5460 5461 5464 5469 5472 5474 5477 5479 5480 5481 5482 5483 5485 5486 5486 5486 5486 5486 5487 5488 5489 5489 5488 5489 5489 5489 5489 5489 5490 5490 5490 5490 5490 5491 5492 5493 5494 5494 5494 5495 5496 5495 5495 5495 5494 5493 5492 5490
5380 5382 5383 5385 5386 5386 5385 5385 5386 5387 5389 5390 5392 5394 5397 5399 5401 5404 5406 5408 5412 5416 5419 5422 5426 5428 5429 5431 5433 5435 5438 5440 5441 5443 5446 5447 5447 5448 5449 5454 5458 5461 5463 5465 5467 5469 5471 5472 5474 5475 5476 5476 5476 5475 5476 5477 5478 5478 5478 5478 5479 5479 5478 5478 5479 5480 5480 5480 5480 5480 5481 5482 5483 5484 5484 5484 5484 5485 5485 5485 5485 5483 5482 5480 5479
5366 5365 5366 5367 5368 5369 5368 5368 5369 5371 5373 5373 5375 5378 5381 5382 5385 5387 5390 5392 5396 5400 5404 5407 5411 5414 5416 5417 5420 5422 5424 5426 5429 5431 5433 5436 5437 5437 5439 5444 5447 5449 5451 5454 5456 5459 5460 5462 5463 5464 5465 5465 5465 5464 5466 5468 5468 5467 5467 5469 5469 5467 5467 5468 5469 5469 5469 5470 5470 5470 5471 5473 5474 5474 5474 5474 5474 5474 5474 5474 5474 5473 5471 5470 5468
5350 5349 5349 5350 5350 5351 5351 5351 5353 5355 5357 5358 5358 5362 5366 5367 5369 5371 5374 5377 5381 5385 5389 5392 5395 5400 5403 5404 5406 5409 5410 5413 5416 5419 5421 5424 5426 5427 5430 5434 5436 5438 5440 5442 5445 5447 5449 5450 5451 5452 5453 5453 5453 5454 5456 5458 5458 5457 5458 5459 5457 5457 5458 5458 5458 5458 5459 5459 5459 5460 5462 5463 5463 5464 5464 5463 5463 5463 5463 5463 5463 5462 5461 5459 5457
5333 5333 5333 5333 5333 5333 5334 5335 5336 5338 5341 5342 5342 5346 5351 5353 5354 5356 5359 5362 5366 5371 5375 5377 5380 5385 5389 5391 5393 5396 5398 5400 5404 5407 5409 5412 5414 5416 5420 5423 5425 5427 5429 5432 5434 5436 5437 5438 5439 5440 5441 5442 5442 5444 5446 5448 5448 5448 5448 5448 5447 5447 5448 5448 5448 5449 5449 5449 5450 5451 5451 5452 5453 5453 5453 5453 5453 5453 5452 5452 5452 5451 5450 5448 5445
5315 5316 5316 5315 5316 5316 5317 5319 5321 5322 5323 5325 5326 5330 5336 5338 5340 5343 5345 5348 5351 5357 5362 5364 5366 5370 5375 5378 5380 5383 5386 5388 5391 5394 5397 5400 5402 5404 5408 5411 5414 5416 5419 5421 5422 5424 5425 5426 5427 5428 5430 5431 5432 5433 5436 5438 5439 5438 5438 5438 5438 5438 5439 5439 5438 5439 5439 5439 5440 5441 5441 5442 5442 5442 5443 5443 5443 5443 5442 5441 5440 5439 5438 5437 5434
5299 5300 5300 5299 5299 5299 5299 5302 5305 5306 5307 5308 5310 5314 5320 5323 5326 5329 5332 5335 5338 5343 5347 5351 5353 5356 5361 5365 5369 5371 5373 5376 5379 5382 5384 5387 5390 5392 5396 5400 5404 5406 5407 5409 5411 5413 5414 5414 5415 5416 5419 5421 5422 5423 5425 5428 5429 5428 5427 5428 5428 5430 5430 5428 5427 5428 5429 5429 5430 5430 5431 5432 5432 5432 5432 5432 5432 5432 5431 5430 5428 5427 5427 5426 5422
5281 5282 5283 5283 5282 5281 5282 5285 5288 5291 5292 5292 5294 5298 5303 5307 5310 5315 5318 5321 5326 5330 5333 5336 5340 5343 5348 5352 5355 5357 5360 5363 5367 5370 5372 5375 5378 5380 5383 5389 5393 5394 5395 5397 5399 5401 5402 5403 5405 5406 5408 5411 5412 5413 5415 5418 5419 5419 5417 5416 5419 5422 5421 5418 5417 5418 5419 5419 5420 5421 5421 5421 5421 5421 5421 5421 5421 5421 5420 5418 5416 5415 5415 5415 5411
5262 5263 5264 5264 5265 5265 5265 5267 5271 5274 5276 5278 5279 5282 5287 5290 5293 5298 5303 5307 5311 5316 5319 5323 5326 5331 5335 5339 5341 5343 5347 5351 5356 5359 5361 5363 5365 5366 5370 5376 5380 5381 5383 5384 5387 5389 5391 5392 5394 5396 5398 5400 5402 5403 5405 5406 5408 5410 5408 5407 5410 5412 5410 5408 5408 5409 5409 5409 5410 5411 5411 5411 5411 5410 5410 5409 5409 5409 5408 5406 5405 5404 5404 5403 5401
5244 5245 5246 5246 5246 5247 5248 5250 5253 5256 5259 5262 5264 5267 5271 5273 5276 5281 5288 5291 5295 5300 5305 5309 5313 5318 5322 5325 5328 5331 5335 5340 5345 5347 5347 5348 5350 5353 5356 5362 5366 5369 5372 5374 5375 5378 5380 5381 5383 5385 5387 5389 5391 5393 5395 5396 5397 5400 5400 5399 5400 5400 5399 5397 5398 5398 5399 5399 5399 5400 5401 5400 5400 5400 5399 5398 5397 5397 5397 5395 5394 5393 5392 5391 5390
5229 5229 5229 5228 5228 5229 5230 5232 5234 5237 5240 5244 5247 5250 5253 5256 5258 5264 5272 5276 5279 5283 5288 5294 5300 5304 5307 5311 5316 5320 5325 5330 5332 5332 5332 5335 5338 5341 5344 5349 5353 5358 5361 5363 5364 5366 5369 5371 5373 5375 5376 5379 5381 5383 5385 5386 5387 5388 5389 5390 5389 5388 5387 5388 5388 5388 5387 5388 5388 5389 5390 5390 5390 5389 5388 5387 5386 5386 5385 5384 5383 5382 5381 5379 5378
5216 5216 5215 5213 5213 5213 5213 5213 5215 5217 5220 5224 5227 5231 5236 5238 5240 5246 5254 5260 5262 5265 5270 5277 5285 5289 5291 5297 5303 5308 5314 5318 5319 5319 5322 5325 5327 5329 5332 5336 5341 5346 5350 5352 5353 5355 5358 5361 5363 5365 5367 5369 5372 5373 5374 5376 5377 5377 5378 5379 5378 5376 5376 5377 5377 5376 5376 5376 5377 5378 5378 5379 5379 5378 5377 5376 5375 5374 5374 5373 5372 5371 5370 5368 5365
5204 5205 5203 5200 5200 5199 5198 5198 5199 5199 5202 5205 5207 5211 5217 5222 5224 5228 5234 5241 5244 5247 5252 5260 5267 5271 5275 5282 5288 5293 5300 5306 5308 5309 5312 5314 5315 5317 5320 5323 5328 5333 5337 5340 5341 5343 5347 5351 5353 5356 5357 5359 5362 5364 5364 5366 5367 5367 5367 5367 5366 5366 5366 5366 5366 5366 5365 5366 5367 5367 5367 5368 5368 5367 5366 5365 5364 5362 5362 5361 5360 5359 5358 5356 5354
5192 5193 5192 5189 5188 5187 5185 5185 5184 5184 5186 5188 5189 5191 5197 5202 5208 5212 5215 5220 5226 5231 5235 5242 5248 5253 5258 5266 5272 5277 5284 5291 5296 5298 5300 5302 5304 5306 5308 5310 5315 5319 5323 5327 5330 5333 5336 5340 5343 5345 5347 5348 5351 5353 5354 5355 5355 5355 5355 5355 5355 5356 5356 5355 5355 5356 5356 5356 5356 5356 5356 5356 5356 5355 5354 5353 5352 5351 5349 5349 5348 5347 5346 5345 5342
5182 5181 5180 5178 5177 5175 5173 5172 5172 5171 5172 5172 5173 5175 5178 5183 5189 5196 5199 5201 5207 5214 5220 5225 5231 5236 5241 5248 5255 5262 5268 5275 5281 5285 5288 5290 5292 5295 5296 5298 5302 5307 5312 5317 5321 5323 5326 5328 5331 5334 5336 5337 5339 5341 5342 5343 5343 5343 5344 5344 5344 5345 5345 5346 5346 5346 5346 5346 5345 5345 5345 5345 5344 5344 5343 5342 5341 5340 5338 5337 5337 5336 5334 5333 5331
5172 5170 5169 5167 5165 5163 5162 5161 5160 5160 5159 5159 5160 5162 5165 5167 5171 5177 5183 5186 5190 5196 5203 5209 5214 5218 5224 5231 5238 5246 5252 5258 5265 5272 5276 5278 5280 5282 5284 5284 5288 5295 5302 5307 5311 5314 5317 5319 5321 5323 5325 5326 5327 5328 5329 5330 5331 5332 5332 5333 5333 5334 5335 5337 5337 5336 5336 5335 5335 5334 5334 5334 5334 5333 5333 5332 5331 5329 5328 5327 5326 5324 5322 5321 5319
5163 5161 5159 5157 5155 5153 5152 5150 5150 5149 5149 5149 5149 5150 5152 5154 5156 5161 5167 5171 5175 5181 5188 5194 5198 5202 5208 5215 5222 5230 5236 5243 5249 5256 5261 5266 5268 5269 5269 5271 5276 5285 5293 5298 5301 5305 5308 5310 5311 5313 5314 5315 5316 5316 5317 5318 5319 5320 5321 5321 5322 5324 5326 5326 5326 5325 5325 5324 5324 5324 5324 5324 5324 5324 5323 5322 5320 5319 5318 5316 5315 5313 5311 5309 5308
5155 5153 5150 5147 5145 5144 5142 5141 5140 5140 5139 5139 5139 5140 5141 5143 5145 5148 5151 5156 5162 5168 5173 5178 5183 5187 5192 5200 5207 5214 5220 5227 5234 5240 5246 5252 5256 5256 5256 5261 5267 5275 5282 5288 5292 5295 5298 5300 5302 5302 5303 5303 5304 5305 5306 5307 5308 5309 5309 5310 5311 5313 5315 5315 5314 5314 5314 5313 5314 5314 5315 5314 5314 5314 5313 5311 5309 5308 5307 5306 5304 5302 5300 5298 5297
5147 5144 5142 5139 5137 5135 5134 5132 5131 5130 5130 5130 5130 5131 5132 5132 5134 5136 5139 5143 5149 5155 5160 5165 5169 5173 5179 5187 5193 5198 5204 5211 5218 5225 5231 5237 5241 5243 5247 5252 5257 5263 5270 5278 5283 5286 5289 5291 5292 5291 5291 5291 5292 5294 5295 5296 5298 5299 5300 5301 5302 5303 5304 5304 5305 5305 5305 5304 5305 5305 5304 5304 5304 5304 5302 5300 5298 5297 5296 5295 5293 5291 5289 5287 5286
5139 5136 5134 5132 5130 5128 5126 5125 5123 5122 5122 5122 5122 5122 5123 5124 5124 5126 5129 5133 5137 5142 5148 5152 5156 5162 5168 5174 5177 5182 5188 5194 5202 5210 5218 5224 5228 5233 5238 5242 5246 5250 5259 5268 5274 5277 5279 5280 5280 5280 5280 5280 5281 5283 5285 5287 5288 5290 5291 5292 5293 5294 5295 5296 5296 5296 5295 5295 5295 5294 5293 5293 5293 5292 5290 5288 5287 5287 5285 5283 5282 5280 5278 5276 5275
5132 5130 5128 5126 5123 5121 5119 5118 5116 5115 5114 5115 5115 5115 5115 5116 5117 5118 5120 5124 5127 5132 5137 5141 5146 5151 5157 5160 5163 5168 5174 5180 5188 5198 5206 5212 5217 5222 5227 5230 5233 5239 5248 5256 5263 5267 5268 5268 5269 5269 5268 5268 5269 5272 5275 5277 5278 5280 5282 5283 5284 5285 5285 5285 5285 5284 5284 5284 5283 5283 5282 5282 5282 5280 5279 5278 5277 5276 5274 5272 5271 5269 5268 5266 5264
5127 5125 5122 5120 5117 5115 5113 5112 5110 5109 5108 5108 5108 5109 5109 5109 5110 5111 5113 5116 5119 5123 5127 5132 5137 5141 5145 5149 5152 5156 5162 5169 5177 5186 5194 5200 5204 5209 5214 5217 5221 5228 5237 5246 5251 5254 5256 5257 5257 5256 5254 5254 5257 5261 5264 5266 5267 5270 5271 5272 5273 5273 5273 5273 5273 5272 5272 5272 5271 5271 5271 5271 5270 5269 5268 5267 5267 5265 5263 5262 5260 5258 5257 5256 5254
5123 5120 5118 5115 5112 5110 5108 5106 5105 5104 5103 5103 5102 5102 5103 5103 5104 5105 5107 5109 5112 5116 5119 5124 5129 5132 5136 5140 5144 5147 5153 5160 5167 5174 5181 5188 5192 5196 5201 5205 5210 5217 5226 5233 5238 5242 5244 5245 5243 5240 5240 5243 5247 5251 5253 5255 5257 5258 5259 5260 5261 5262 5262 5262 5261 5261 5261 5261 5260 5260 5260 5260 5259 5258 5258 5257 5256 5255 5253 5252 5250 5249 5247 5246 5244
5120 5117 5114 5110 5108 5106 5103 5102 5100 5099 5098 5097 5097 5097 5097 5097 5098 5100 5101 5104 5106 5110 5114 5118 5122 5125 5128 5132 5136 5140 5145 5151 5157 5163 5170 5176 5180 5184 5190 5196 5202 5208 5215 5220 5225 5228 5230 5229 5227 5227 5230 5234 5238 5240 5242 5244 5245 5247 5248 5249 5250 5250 5250 5251 5251 5250 5250 5250 5250 5250 5250 5250 5249 5248 5247 5247 5246 5246 5244 5243 5241 5239 5238 5236 5234
5118 5115 5111 5107 5105 5102 5100 5098 5097 5095 5094 5093 5093 5092 5093 5093 5094 5095 5097 5099 5102 5105 5109 5112 5116 5119 5122 5126 5129 5133 5138 5143 5148 5154 5161 5166 5170 5175 5181 5186 5192 5198 5202 5207 5211 5213 5213 5214 5215 5218 5222 5225 5228 5230 5232 5233 5234 5235 5237 5238 5239 5239 5240 5240 5240 5240 5240 5240 5240 5240 5240 5240 5239 5238 5238 5237 5237 5236 5235 5233 5232 5230 5228 5227 5225
5117 5113 5110 5106 5103 5101 5099 5097 5095 5094 5092 5092 5091 5091 5091 5091 5092 5093 5094 5096 5099 5102 5105 5108 5111 5114 5117 5120 5124 5128 5133 5137 5142 5147 5152 5157 5162 5166 5171 5176 5181 5186 5190 5194 5196 5198 5200 5203 5207 5210 5213 5215 5218 5220 5221 5222 5224 5225 5226 5227 5228 5229 5230 5230 5230 5230 5230 5230 5231 5231 5230 5230 5230 5229 5229 5228 5228 5227 5226 5224 5223 5221 5220 5218 5216
5116 5113 5110 5106 5104 5101 5099 5098 5096 5095 5094 5092 5092 5091 5091 5091 5091 5093 5094 5095 5098 5100 5103 5105 5108 5111 5114 5117 5120 5124 5128 5132 5136 5140 5144 5149 5153 5158 5162 5166 5170 5174 5179 5182 5184 5187 5191 5195 5198 5201 5204 5206 5208 5209 5211 5212 5214 5215 5216 5217 5218 5219 5220 5221 5221 5221 5222 5222 5222 5222 5221 5221 5221 5221 5220 5220 5219 5219 5218 5216 5214 5213 5211 5209 5207
5116 5113 5110 5107 5105 5102 5101 5099 5098 5097 5096 5095 5094 5093 5093 5093 5093 5094 5094 5096 5098 5099 5102 5104 5106 5109 5111 5114 5117 5121 5124 5127 5131 5134 5138 5142 5146 5150 5154 5158 5161 5165 5169 5172 5176 5179 5183 5186 5189 5192 5194 5196 5198 5199 5201 5203 5204 5205 5206 5207 5209 5210 5211 5212 5213 5213 5214 5214 5214 5213 5213 5213 5213 5213 5213 5212 5211 5210 5209 5208 5206 5205 5202 5200 5198
5116 5113 5110 5108 5106 5104 5102 5101 5100 5099 5098 5097 5096 5096 5095 5095 5095 5096 5096 5097 5098 5100 5102 5104 5106 5108 5110 5113 5115 5118 5121 5123 5126 5130 5133 5136 5140 5143 5147 5151 5154 5157 5161 5164 5168 5171 5174 5177 5180 5182 5185 5187 5189 5191 5192 5193 5195 5196 5198 5200 5201 5203 5203 5204 5205 5206 5206 5206 5206 5206 5206 5206 5205 5205 5205 5204 5203 5202 5202 5200 5198 5196 5194 5191 5189
5116 5113 5111 5109 5107 5105 5103 5102 5101 5100 5100 5099 5098 5098 5097 5097 5097 5098 5098 5099 5100 5101 5103 5104 5106 5108 5110 5112 5115 5117 5119 5121 5124 5127 5130 5133 5136 5139 5143 5146 5149 5152 5155 5158 5161 5164 5167 5170 5172 5174 5177 5179 5181 5183 5184 5186 5187 5189 5191 5193 5194 5195 5196 5197 5198 5198 5198 5198 5199 5199 5199 5199 5198 5197 5197 5196 5195 5194 5193 5191 5189 5188 5185 5183 5181
5116 5114 5112 5109 5108 5106 5104 5103 5102 5101 5101 5100 5099 5099 5099 5099 5099 5099 5100 5100 5101 5102 5103 5105 5106 5108 5110 5112 5114 5116 5118 5120 5122 5125 5127 5130 5133 5136 5140 5143 5145 5148 5151 5153 5156 5159 5161 5163 5165 5168 5170 5172 5174 5175 5177 5179 5181 5183 5184 5186 5187 5188 5189 5189 5190 5191 5191 5191 5192 5192 5192 5192 5191 5190 5190 5189 5187 5186 5185 5183 5181 5179 5177 5175 5173
5118 5115 5112 5110 5108 5107 5105 5104 5103 5102 5101 5101 5100 5100 5100 5100 5100 5100 5101 5101 5102 5103 5104 5105 5106 5108 5109 5111 5113 5115 5116 5119 5121 5123 5125 5128 5131 5133 5136 5139 5142 5144 5147 5149 5151 5153 5155 5157 5160 5162 5163 5166 5168 5170 5172 5174 5175 5177 5178 5179 5180 5181 5182 5183 5184 5184 5185 5185 5185 5185 5185 5185 5184 5183 5182 5181 5179 5178 5177 5175 5173 5172 5170 5167 5165
5121 5117 5114 5112 5110 5108 5106 5105 5104 5103 5102 5101 5101 5101 5100 5100 5100 5100 5101 5101 5102 5102 5103 5104 5105 5107 5108 5110 5111 5113 5115 5117 5119 5121 5124 5126 5128 5131 5133 5136 5138 5141 5143 5145 5147 5149 5151 5153 5155 5157 5159 5161 5163 5165 5166 5168 5169 5171 5172 5173 5174 5175 5176 5176 5177 5178 5178 5179 5179 5179 5178 5178 5177 5176 5174 5173 5172 5170 5169 5167 5165 5163 5161 5159 5156